Regional Weather Roundup
Issued by NWS New Orleans/Baton Rouge, LA

Home | Current Version | Previous Version | Graphics & Text | Print | Product List | Glossary On
Versions: 1 2 3 4 5 6 7 8 9 10 11 12 13 14 15 16 17 18 19 20 21 22 23 24 25 26 27 28 29 30 31 32 33 34 35 36 37 38 39 40 41 42 43 44 45 46 47 48 49 50
163
ASUS44 KLIX 192001
RWRLIX
NEW ORLEANS REGIONAL WEATHER ROUNDUP
NATIONAL WEATHER SERVICE NEW ORLEANS LA
300 PM CDT SAT APR 19 2014

NOTE: "FAIR" INDICATES FEW OR NO CLOUDS BELOW 12,000 FEET WITH NO
      SIGNIFICANT WEATHER AND/OR OBSTRUCTIONS TO VISIBILITY.
      SKY/WX - SKY CONDITION AND SIGNIFICANT WEATHER.
      TMP - AIR TEMPERATURE.     DP    - DEWPOINT TEMPERATURE.
      RH  - RELATIVE HUMIDITY.   PRES  - PRESSURE.
      HI  - HEAT INDEX.          WCI   - WIND CHILL INDEX.

*  THESE STATIONS ARE NOT NWS OR FAA STATIONS AND ARE NOT UNDER
   NWS QUALITY CONTROL.

LAZ038-040-048-061>063-065>067-069-192100-
SOUTHEAST LOUISIANA

CITY           SKY/WX    TMP DP  RH WIND       PRES   REMARKS
N.O. AUDUBON     N/A     77  53  42 MISG        N/A
N.O. INTL ARPT MOSUNNY   75  53  46 NW9       30.12F
N.O. LAKEFRONT SUNNY     71  57  61 W13       30.12F
N.O. DOWNTOWN*   N/A     75  48  38 N8        30.12F
SLIDELL        SUNNY     78  50  37 NW9       30.09F
BATON ROUGE    SUNNY     80  52  37 VRB7      30.12F
BOOTHVILLE     SUNNY     68  53  58 NW8       30.12F
BELLE CHASSE   MOSUNNY   76  47  35 N9G16     30.10F
BOGALUSA*        N/A     79  49  35 N14       30.12F
GALLIANO*      NOT AVBL
NEW ROADS*     NOT AVBL
GONZALES*        N/A     77  50  38 N6        30.11F
HAMMOND*       NOT AVBL
HOUMA*         SUNNY     79  46  31 N12       30.12F
PORT FOURCHON* CLEAR     72  54  53 NE8       30.14F

$$

MSZ070-080>082-192100-
SOUTHERN MISSISSIPPI

CITY           SKY/WX    TMP DP  RH WIND       PRES   REMARKS
MCCOMB         MOSUNNY   77  49  37 NW8       30.12F
GULFPORT       SUNNY     81  50  33 N14G22    30.07F
BILOXI         SUNNY     78  51  39 N10       30.07F
PASCAGOULA     SUNNY     77  51  40 N13       30.05F
STENNIS ARPT*  SUNNY     79  46  31 N9        30.09F

$$

COASTAL OBSERVATIONS
LAKE AND NEARSHORE STATIONS

STATION/POSITION TIME  TEMP    WIND        PRES    WAVE
                       AIR SEA DIR/SP/G            HT/PER
                 (UTC) (F)     (DEG/KT/KT) (MB)    (FT/S)
PASCAGOULA       1900   76     360/ 10/ 17 1017.3
WAVELAND YACHT   1900   74 69  330/  9/ 12 1018.2
GRAND ISLE       1900   70 67   10/  3/  5 1020.8
SOUTHWEST PASS   1900   70 59  350/  8/ 10 1020.5
NEW CANAL        1900   70 65  270/  5/  8 1020.6
SHELL BEACH      1900   69 64  300/  9/ 10 1019.7

OFFSHORE STATIONS

STATION/POSITION TIME  TEMP    WIND        PRES    WAVE
                       AIR SEA DIR/SP/G            HT/PER
                 (UTC) (F)     (DEG/KT/KT) (MB)    (FT/S)
64 S DAUPHIN ISL 1940   65 71  320/ 16/ 17 1018.6

$$




USA.gov is the U.S. government's official web portal to all federal, state and local government web resources and services.